sat.trackr.live / text

‹ back to catalog

STARLINK-3918

NORAD 52486 · 2022-049AM

PAYLOAD ACTIVE UNKNOWN

§ Identity

Operator
Country
US
Launch date
2022-05-06
Launch site
AFETR
Launch vehicle
Mass (kg)
RCS (m²)

Purposes: comms

External: N2YO · Heavens-Above · Gunter

§ Orbital elements

Epoch: 2026-09-19T17:03:59.468544Z

Period
93.85 min
Inclination
53.1590°
Eccentricity
0.0001339
Mean motion
15.34384891 rev/d
Perigee alt
461.8 km
Apogee alt
463.7 km
Semi-major
6,840.9 km
B*
2.2845e-5
RAAN
257.0603°
Arg perigee
88.9699°
Mean anomaly
271.1457°
Rev number
24,169

§ Raw data

STARLINK-39181 52486U 22049AM  26262.71110496  .00000395  00000+0  22845-4 0  99902 52486  53.1590 257.0603 0001339  88.9699 271.1457 15.34384891241693

JSON: /api/v1/satellites/52486 · /tle

For live sub-satellite position, see the globe view (requires WebGL).

§ Visibility from observer

Set your observer location to see the next 7 days of passes ≥ 10°. The values pass through the URL so the page stays shareable.

No JS? Fill the form by hand. The geolocation button needs JavaScript.